Flag for Colombia Weather past 2 weeks in Barranquilla, Colombia

Now
79 °F

Clear.


Feels Like: 82 °F
Forecast: 78 / 87 °F
Wind: 7 mph from Northeast

Location: Barranquilla / Ernestocortissoz


UV Index: 10 (Very high)

Visibility: 10 mi


Pressure: 29.73 "Hg

Humidity: 89%

Dew point: 75 °F

Location of BarranquillaLocation

Historic Weather in Barranquilla

°F

Barranquilla temperature yesterday

Maximum temperature yesterday: 91 °F (at 11:00 AM)
Minimum temperature yesterday: 77 °F (at 2:00 AM)
Average temperature yesterday: 83 °F

Past Weeks' High & Low Weather Summary

 TemperatureHumidityPressure
High97 °F (Apr 7, 12:00 PM)100% (Apr 6, 2:00 AM)29.92 "Hg (Apr 6, 2:00 AM)
Low75 °F (Apr 9, 4:00 AM)56% (Apr 5, 11:00 AM)29.72 "Hg (Apr 6, 5:00 PM)
Average82 °F81%29.80 "Hg
* Reported Apr 3 2:00 AM — Apr 18 2:04 AM, Barranquilla, Weather by CustomWeather, © 2014

Note: Actual official high and low records may vary slightly from our data, if they occured in-between our weather recording intervals... More about our weather records

Advertising

Historic Weather Conditions — Data for Previous 24 hours

 ConditionsComfort  
Time TempWeatherWind HumidityBarometerVisibility
2:04 AM
Apr 18
79 °FClear.12 mph89%29.74 "Hg10 mi
1:00 AM79 °FClear.6 mph89%29.76 "Hg10 mi
12:00 AM81 °FClear.14 mph84%29.79 "Hg10 mi
11:00 PM
Apr 17
81 °FClear.18 mph84%29.80 "Hg10 mi
10:00 PM81 °FClear.16 mph84%29.80 "Hg10 mi
9:00 PM81 °FPassing clouds.16 mph79%29.78 "HgN/A
8:00 PM81 °FPassing clouds.16 mph84%29.77 "HgN/A
7:00 PM81 °FPassing clouds.15 mph84%29.77 "HgN/A
6:00 PM82 °FScattered clouds.15 mph79%29.75 "HgN/A
5:00 PM84 °FPartly sunny.14 mph74%29.75 "HgN/A
4:00 PM84 °FPartly sunny.16 mph74%29.75 "HgN/A
3:00 PM88 °FPartly sunny.17 mph66%29.77 "HgN/A
2:00 PM90 °FPartly sunny.15 mph63%29.78 "HgN/A
1:00 PM91 °FPartly sunny.10 mph59%29.80 "HgN/A
12:00 PM91 °FScattered clouds.6 mph63%29.83 "HgN/A
11:00 AM91 °FPassing clouds.9 mph63%29.85 "HgN/A
10:00 AM90 °FScattered clouds.7 mph67%29.86 "HgN/A
9:00 AM86 °FScattered clouds.8 mph79%29.85 "HgN/A
8:00 AM82 °FPassing clouds.7 mph89%29.83 "HgN/A
7:00 AM77 °FFog.3 mph100%29.82 "Hg4 mi
6:00 AM77 °FFog.5 mph94%29.79 "Hg2 mi
5:00 AM77 °FClear.7 mph94%29.78 "Hg10 mi
4:00 AM77 °FClear.12 mph94%29.77 "Hg10 mi
3:00 AM77 °FClear.14 mph94%29.78 "Hg10 mi
Weather by CustomWeather, © 2014

See weather overview